ANZ232 YPAD-NZQN

Flight info

Callsign ANZ232
Flight time N/A
Altitude 33000
Route BENDO Y218 LOLLS DCT ML DCT CORRS Y21 DADAD P753 ADKOS
Aircraft A21N/M-SDE2E3FGHIRWXY/LB1

Departure

Time 2026-05-06 21:19
Airport Adelaide International Airport (YPAD)

Arrival

Time N/A
Airport Queenstown Airport (NZQN)
Time Latitude Longitude Altitude Speed Heading
2026-05-06 21:14 -34.93969 138.53609 27 ft 0 kts 287°
2026-05-06 21:16 -34.93964 138.53552 26 ft 1 kts 256°
2026-05-06 21:16 -34.93985 138.53518 26 ft 1 kts 228°
2026-05-06 21:16 -34.94089 138.53384 27 ft 23 kts 216°
2026-05-06 21:16 -34.94201 138.53417 25 ft 16 kts 134°
2026-05-06 21:17 -34.94260 138.53522 21 ft 12 kts 88°
2026-05-06 21:17 -34.94226 138.53585 22 ft 9 kts 48°
2026-05-06 21:17 -34.94185 138.53641 22 ft 9 kts 48°
2026-05-06 21:17 -34.94077 138.53797 26 ft 29 kts 50°
2026-05-06 21:18 -34.93947 138.53985 27 ft 29 kts 49°
2026-05-06 21:18 -34.93886 138.54142 24 ft 12 kts 112°
2026-05-06 21:18 -34.93975 138.54227 27 ft 27 kts 144°
2026-05-06 21:18 -34.94123 138.54234 28 ft 20 kts 224°
2026-05-06 21:19 -34.94328 138.53942 24 ft 80 kts 230°
2026-05-06 21:19 -34.94855 138.53180 28 ft 157 kts 228°
2026-05-06 21:19 -34.95609 138.52229 852 ft 143 kts 219°
2026-05-06 21:19 -34.96356 138.51339 1619 ft 157 kts 226°
2026-05-06 21:20 -34.97061 138.50249 2279 ft 176 kts 228°
2026-05-06 21:20 -34.97869 138.48975 2633 ft 204 kts 228°
2026-05-06 21:20 -34.98815 138.47527 3067 ft 230 kts 227°
2026-05-06 21:20 -34.99848 138.45980 3847 ft 239 kts 227°
2026-05-06 21:21 -35.00977 138.44483 4760 ft 240 kts 218°
2026-05-06 21:21 -35.02360 138.43374 5674 ft 238 kts 202°
2026-05-06 21:21 -35.03951 138.42851 6681 ft 237 kts 186°
2026-05-06 21:21 -35.05595 138.42967 7688 ft 239 kts 171°
2026-05-06 21:22 -35.07175 138.43724 8546 ft 251 kts 155°
2026-05-06 21:22 -35.08629 138.44967 9444 ft 259 kts 148°
2026-05-06 21:22 -35.09892 138.46561 10293 ft 274 kts 131°
2026-05-06 21:22 -35.10661 138.48795 10840 ft 306 kts 107°
2026-05-06 21:23 -35.10719 138.51530 11140 ft 338 kts 93°
2026-05-06 21:23 -35.10513 138.54494 11449 ft 361 kts 90°
2026-05-06 21:23 -35.10264 138.57607 11986 ft 374 kts 90°
2026-05-06 21:23 -35.10022 138.60800 12705 ft 380 kts 90°
2026-05-06 21:24 -35.09791 138.64045 13435 ft 386 kts 90°
2026-05-06 21:24 -35.09568 138.67347 14172 ft 393 kts 91°
2026-05-06 21:24 -35.09347 138.70696 14796 ft 398 kts 91°
2026-05-06 21:24 -35.09125 138.74083 15491 ft 401 kts 90°
2026-05-06 21:25 -35.08902 138.77485 16206 ft 404 kts 90°
2026-05-06 21:25 -35.08682 138.80872 16891 ft 407 kts 90°
2026-05-06 21:25 -35.08456 138.84337 17566 ft 409 kts 90°
2026-05-06 21:25 -35.08229 138.87814 18261 ft 413 kts 90°
2026-05-06 21:26 -35.07999 138.91334 18861 ft 417 kts 90°
2026-05-06 21:26 -35.07767 138.94866 19439 ft 419 kts 90°
2026-05-06 21:26 -35.07531 138.98433 20017 ft 422 kts 90°
2026-05-06 21:26 -35.07293 139.02015 20585 ft 424 kts 90°
2026-05-06 21:27 -35.07052 139.05621 21151 ft 427 kts 90°
2026-05-06 21:27 -35.06810 139.09247 21724 ft 429 kts 90°
2026-05-06 21:27 -35.06568 139.12846 22227 ft 433 kts 91°
2026-05-06 21:27 -35.06439 139.16515 22765 ft 431 kts 97°
2026-05-06 21:28 -35.06796 139.20119 23318 ft 425 kts 109°
2026-05-06 21:28 -35.07737 139.23492 23846 ft 417 kts 121°
2026-05-06 21:28 -35.09194 139.26518 24317 ft 411 kts 131°
2026-05-06 21:28 -35.10891 139.29337 24766 ft 412 kts 133°
2026-05-06 21:29 -35.12631 139.32119 25203 ft 413 kts 133°
2026-05-06 21:29 -35.14381 139.34914 25631 ft 415 kts 133°
2026-05-06 21:29 -35.16134 139.37726 26050 ft 417 kts 133°
2026-05-06 21:29 -35.17889 139.40553 26459 ft 418 kts 133°
2026-05-06 21:30 -35.19649 139.43395 26863 ft 420 kts 133°
2026-05-06 21:30 -35.21417 139.46258 27247 ft 422 kts 132°
2026-05-06 21:30 -35.23185 139.49126 27630 ft 424 kts 132°
2026-05-06 21:30 -35.24870 139.52107 28002 ft 428 kts 128°
2026-05-06 21:31 -35.26464 139.55194 28392 ft 430 kts 127°
2026-05-06 21:31 -35.28022 139.58345 28753 ft 432 kts 127°
2026-05-06 21:31 -35.29552 139.61506 29175 ft 432 kts 126°
2026-05-06 21:31 -35.31054 139.64631 29679 ft 430 kts 126°
2026-05-06 21:32 -35.32567 139.67777 30181 ft 427 kts 126°
2026-05-06 21:32 -35.35582 139.74017 30980 ft 424 kts 126°
2026-05-06 21:32 -35.37089 139.77121 31332 ft 423 kts 127°
2026-05-06 21:33 -35.38593 139.80216 31674 ft 422 kts 127°
2026-05-06 21:33 -35.40096 139.83307 32021 ft 421 kts 127°
2026-05-06 21:33 -35.41591 139.86386 32361 ft 420 kts 127°
2026-05-06 21:33 -35.43085 139.89465 32673 ft 419 kts 127°
2026-05-06 21:34 -35.44071 139.91498 32882 ft 419 kts 127°
2026-05-06 21:34 -35.45558 139.94569 33199 ft 418 kts 127°
2026-05-06 21:34 -35.47044 139.97638 33396 ft 419 kts 127°
2026-05-06 21:34 -35.48531 140.00715 33394 ft 418 kts 127°
2026-05-06 21:35 -35.51492 140.06851 33396 ft 418 kts 127°
2026-05-06 21:35 -35.54452 140.12994 33395 ft 418 kts 127°
2026-05-06 21:36 -35.57407 140.19138 33393 ft 418 kts 127°
2026-05-06 21:36 -35.60357 140.25282 33392 ft 417 kts 127°
2026-05-06 21:37 -35.63282 140.31385 33393 ft 417 kts 127°
2026-05-06 21:37 -35.66223 140.37533 33387 ft 417 kts 127°
2026-05-06 21:38 -35.69159 140.43684 33402 ft 417 kts 127°
2026-05-06 21:38 -35.72091 140.49837 33391 ft 417 kts 127°
2026-05-06 21:39 -35.75004 140.55958 33384 ft 417 kts 127°
2026-05-06 21:39 -35.77930 140.62119 33384 ft 416 kts 127°
2026-05-06 21:40 -35.80853 140.68286 33383 ft 416 kts 128°
2026-05-06 21:40 -35.83773 140.74456 33381 ft 416 kts 127°
2026-05-06 21:41 -35.86689 140.80631 33382 ft 416 kts 127°
2026-05-06 21:41 -35.89583 140.86770 33381 ft 416 kts 127°
2026-05-06 21:42 -35.92488 140.92942 33390 ft 416 kts 128°
2026-05-06 21:42 -35.95389 140.99119 33372 ft 415 kts 128°
2026-05-06 21:43 -35.98280 141.05285 33381 ft 414 kts 128°
2026-05-06 21:43 -36.01170 141.11458 33394 ft 414 kts 128°
2026-05-06 21:44 -36.04030 141.17583 33372 ft 414 kts 128°
2026-05-06 21:44 -36.06905 141.23747 33372 ft 414 kts 128°
2026-05-06 21:45 -36.09778 141.29916 33365 ft 414 kts 128°
2026-05-06 21:45 -36.12650 141.36099 33377 ft 414 kts 128°
2026-05-06 21:46 -36.15516 141.42278 33364 ft 414 kts 128°
2026-05-06 21:46 -36.18378 141.48460 33360 ft 414 kts 128°
2026-05-06 21:47 -36.21233 141.54639 33360 ft 414 kts 128°
2026-05-06 21:47 -36.24091 141.60834 33357 ft 414 kts 128°
2026-05-06 21:48 -36.26943 141.67029 33351 ft 414 kts 128°
2026-05-06 21:48 -36.29792 141.73229 33352 ft 414 kts 128°
2026-05-06 21:49 -36.32617 141.79389 33353 ft 414 kts 128°
2026-05-06 21:49 -36.35458 141.85596 33356 ft 414 kts 128°
2026-05-06 21:50 -36.38297 141.91808 33347 ft 414 kts 128°
2026-05-06 21:50 -36.41132 141.98022 33347 ft 414 kts 128°
2026-05-06 21:51 -36.43965 142.04245 33340 ft 414 kts 128°
2026-05-06 21:51 -36.46793 142.10471 33337 ft 414 kts 129°
2026-05-06 21:52 -36.49622 142.16707 33338 ft 414 kts 129°
2026-05-06 21:52 -36.52428 142.22902 33332 ft 414 kts 128°
2026-05-06 21:53 -36.55266 142.29183 33360 ft 414 kts 129°
2026-05-06 21:53 -36.58077 142.35416 33330 ft 414 kts 129°
2026-05-06 21:54 -36.60881 142.41645 33328 ft 414 kts 129°
2026-05-06 21:54 -36.63698 142.47914 33323 ft 414 kts 129°
2026-05-06 21:55 -36.66508 142.54182 33340 ft 414 kts 129°
2026-05-06 21:55 -36.69317 142.60456 33316 ft 415 kts 129°
2026-05-06 21:56 -36.72123 142.66737 33317 ft 415 kts 129°
2026-05-06 21:56 -36.74911 142.72988 33315 ft 415 kts 129°
2026-05-06 21:57 -36.77716 142.79292 33317 ft 415 kts 129°
2026-05-06 21:57 -36.80514 142.85591 33310 ft 415 kts 129°
2026-05-06 21:58 -36.83312 142.91901 33307 ft 415 kts 129°
2026-05-06 21:58 -36.86106 142.98215 33302 ft 415 kts 129°
2026-05-06 21:59 -36.88896 143.04533 33311 ft 415 kts 129°
2026-05-06 21:59 -36.91686 143.10862 33298 ft 416 kts 129°
2026-05-06 22:00 -36.94457 143.17160 33294 ft 416 kts 129°
2026-05-06 22:00 -36.97241 143.23501 33295 ft 416 kts 129°
2026-05-06 22:01 -37.00025 143.29851 33275 ft 417 kts 129°
2026-05-06 22:01 -37.02810 143.36221 33289 ft 417 kts 129°
2026-05-06 22:02 -37.05587 143.42588 33288 ft 415 kts 129°
2026-05-06 22:02 -37.08350 143.48930 33281 ft 415 kts 129°
2026-05-06 22:03 -37.11113 143.55279 33276 ft 415 kts 129°
2026-05-06 22:03 -37.13857 143.61599 33275 ft 416 kts 129°
2026-05-06 22:04 -37.16616 143.67970 33268 ft 416 kts 129°
2026-05-06 22:04 -37.19371 143.74342 33269 ft 416 kts 129°
2026-05-06 22:05 -37.22134 143.80743 33271 ft 418 kts 129°
2026-05-06 22:05 -37.24903 143.87174 33267 ft 418 kts 129°
2026-05-06 22:06 -37.27651 143.93572 33266 ft 418 kts 129°
2026-05-06 22:06 -37.30408 144.00003 33262 ft 418 kts 129°
2026-05-06 22:07 -37.33164 144.06442 33259 ft 418 kts 129°
2026-05-06 22:07 -37.35917 144.12884 33256 ft 418 kts 129°
2026-05-06 22:08 -37.38667 144.19334 33251 ft 418 kts 129°
2026-05-06 22:08 -37.41414 144.25790 33287 ft 419 kts 128°
2026-05-06 22:09 -37.44190 144.32314 33247 ft 425 kts 128°
2026-05-06 22:09 -37.46969 144.38878 33245 ft 425 kts 128°
2026-05-06 22:10 -37.49746 144.45452 33239 ft 425 kts 128°
2026-05-06 22:10 -37.52523 144.52035 33250 ft 427 kts 128°
2026-05-06 22:11 -37.55303 144.58628 33225 ft 429 kts 128°
2026-05-06 22:11 -37.58099 144.65286 33237 ft 429 kts 127°
2026-05-06 22:12 -37.60891 144.71949 33237 ft 430 kts 127°
2026-05-06 22:12 -37.63686 144.78625 33247 ft 433 kts 127°
2026-05-06 22:13 -37.66471 144.85401 33238 ft 437 kts 124°
2026-05-06 22:13 -37.68986 144.92427 33239 ft 440 kts 122°
2026-05-06 22:14 -37.71394 144.99538 33236 ft 441 kts 122°
2026-05-06 22:14 -37.73825 145.06671 33231 ft 444 kts 121°
2026-05-06 22:15 -37.76277 145.13798 33227 ft 445 kts 122°
2026-05-06 22:15 -37.78750 145.20979 33220 ft 445 kts 122°
2026-05-06 22:16 -37.81219 145.28157 33232 ft 446 kts 121°
2026-05-06 22:16 -37.83698 145.35377 33212 ft 448 kts 121°
2026-05-06 22:17 -37.86179 145.42628 33205 ft 448 kts 121°
2026-05-06 22:17 -37.88638 145.49833 33216 ft 449 kts 121°
2026-05-06 22:18 -37.91111 145.57095 33210 ft 451 kts 120°
2026-05-06 22:18 -37.93933 145.64128 33200 ft 445 kts 127°
2026-05-06 22:19 -37.97105 145.70881 33194 ft 445 kts 128°
2026-05-06 22:19 -38.00328 145.77567 33196 ft 444 kts 128°
2026-05-06 22:20 -38.03571 145.84284 33192 ft 448 kts 127°
2026-05-06 22:20 -38.06798 145.91014 33186 ft 449 kts 127°
2026-05-06 22:21 -38.10038 145.97802 33183 ft 449 kts 127°
2026-05-06 22:21 -38.13270 146.04591 33180 ft 449 kts 127°
2026-05-06 22:22 -38.15969 146.10262 33182 ft 453 kts 127°
2026-05-06 22:22 -38.19755 146.18241 33162 ft 452 kts 127°
2026-05-06 22:23 -38.22469 146.23977 33151 ft 451 kts 127°
2026-05-06 22:23 -38.25681 146.30774 33151 ft 451 kts 127°
2026-05-06 22:24 -38.28947 146.37688 33141 ft 460 kts 126°
2026-05-06 22:24 -38.32246 146.44700 33142 ft 462 kts 125°
2026-05-06 22:25 -38.35549 146.51744 33142 ft 462 kts 126°
2026-05-06 22:25 -38.38824 146.58740 33131 ft 462 kts 125°
2026-05-06 22:26 -38.42116 146.65781 33118 ft 462 kts 125°
2026-05-06 22:26 -38.45402 146.72826 33115 ft 462 kts 125°
2026-05-06 22:27 -38.48692 146.79895 33102 ft 462 kts 125°
2026-05-06 22:27 -38.51971 146.86952 33101 ft 463 kts 125°
2026-05-06 22:28 -38.55263 146.94053 33097 ft 464 kts 124°
2026-05-06 22:28 -38.58526 147.01115 33086 ft 464 kts 124°
2026-05-06 22:29 -38.61805 147.08225 33077 ft 464 kts 124°
2026-05-06 22:29 -38.65087 147.15353 33081 ft 468 kts 124°
2026-05-06 22:30 -38.68396 147.22555 33060 ft 469 kts 124°
2026-05-06 22:30 -38.71699 147.29760 33052 ft 469 kts 124°
2026-05-06 22:31 -38.74996 147.36977 33048 ft 469 kts 124°
2026-05-06 22:31 -38.78298 147.44215 33051 ft 471 kts 124°
2026-05-06 22:32 -38.81614 147.51486 33033 ft 472 kts 124°
2026-05-06 22:32 -38.84884 147.58701 33034 ft 471 kts 124°
2026-05-06 22:33 -38.88178 147.65973 33029 ft 472 kts 124°
2026-05-06 22:33 -38.91498 147.73316 33011 ft 477 kts 123°
2026-05-06 22:34 -38.94819 147.80686 33013 ft 476 kts 123°
2026-05-06 22:34 -38.98139 147.88068 33007 ft 476 kts 123°
2026-05-06 22:35 -39.01440 147.95423 33001 ft 476 kts 123°
2026-05-06 22:35 -39.04761 148.02833 33001 ft 478 kts 123°
2026-05-06 22:36 -39.08071 148.10242 32996 ft 480 kts 122°
2026-05-06 22:36 -39.11392 148.17695 32986 ft 480 kts 123°
2026-05-06 22:37 -39.14723 148.25187 32992 ft 485 kts 122°
2026-05-06 22:37 -39.18072 148.32736 32982 ft 483 kts 121°
2026-05-06 22:38 -39.21397 148.40253 32980 ft 484 kts 122°
2026-05-06 22:38 -39.24720 148.47778 32972 ft 481 kts 121°
2026-05-06 22:39 -39.28027 148.55286 32967 ft 481 kts 121°
2026-05-06 22:39 -39.31320 148.62783 32964 ft 485 kts 121°
2026-05-06 22:40 -39.34644 148.70367 32956 ft 484 kts 121°
2026-05-06 22:40 -39.37964 148.77962 32958 ft 486 kts 120°
2026-05-06 22:41 -39.42952 148.89403 32948 ft 485 kts 120°
2026-05-06 22:42 -39.46256 148.97011 32941 ft 485 kts 120°
2026-05-06 22:42 -39.49561 149.04636 32937 ft 484 kts 120°
2026-05-06 22:43 -39.52842 149.12227 32937 ft 481 kts 120°
2026-05-06 22:43 -39.56080 149.19736 32940 ft 481 kts 120°
2026-05-06 22:44 -39.59350 149.27330 32933 ft 482 kts 120°
2026-05-06 22:44 -39.62611 149.34927 32932 ft 482 kts 120°
2026-05-06 22:45 -39.65872 149.42544 32926 ft 484 kts 120°
2026-05-06 22:45 -39.69133 149.50180 32917 ft 482 kts 120°
2026-05-06 22:46 -39.72379 149.57796 32920 ft 481 kts 120°
2026-05-06 22:46 -39.75603 149.65380 32920 ft 484 kts 119°
2026-05-06 22:47 -39.78849 149.73036 32914 ft 484 kts 119°
2026-05-06 22:47 -39.82095 149.80713 32914 ft 484 kts 119°
2026-05-06 22:48 -39.85335 149.88394 32905 ft 485 kts 119°
2026-05-06 22:48 -39.88582 149.96107 32894 ft 486 kts 118°
2026-05-06 22:49 -39.91830 150.03846 32897 ft 487 kts 118°
2026-05-06 22:49 -39.95074 150.11596 32889 ft 487 kts 118°
2026-05-06 22:50 -39.98299 150.19316 32875 ft 487 kts 117°
2026-05-06 22:50 -40.01543 150.27096 32883 ft 488 kts 117°
2026-05-06 22:51 -40.04777 150.34885 32876 ft 487 kts 117°
2026-05-06 22:51 -40.07999 150.42665 32870 ft 487 kts 117°
2026-05-06 22:52 -40.11222 150.50463 32870 ft 489 kts 117°
2026-05-06 22:52 -40.14444 150.58294 32861 ft 490 kts 116°
2026-05-06 22:53 -40.17483 150.66271 32855 ft 489 kts 114°
2026-05-06 22:53 -40.20402 150.74316 32853 ft 489 kts 113°
2026-05-06 22:54 -40.23327 150.82380 32850 ft 492 kts 113°
2026-05-06 22:54 -40.26256 150.90425 32843 ft 493 kts 113°
2026-05-06 22:55 -40.29208 150.98523 32840 ft 493 kts 113°
2026-05-06 22:55 -40.32158 151.06630 32839 ft 494 kts 112°
2026-05-06 22:56 -40.35112 151.14773 32835 ft 495 kts 112°
2026-05-06 22:56 -40.38064 151.22940 32832 ft 496 kts 112°
2026-05-06 22:57 -40.41017 151.31128 32832 ft 496 kts 112°
2026-05-06 22:57 -40.43965 151.39323 32828 ft 496 kts 112°
2026-05-06 22:58 -40.46888 151.47478 32828 ft 497 kts 112°
2026-05-06 22:58 -40.49826 151.55698 32822 ft 497 kts 112°
2026-05-06 22:59 -40.52761 151.63930 32794 ft 497 kts 111°
2026-05-06 22:59 -40.55698 151.72189 32821 ft 499 kts 111°
2026-05-06 23:00 -40.58631 151.80466 32823 ft 499 kts 111°
2026-05-06 23:00 -40.61537 151.88694 32821 ft 499 kts 111°
2026-05-06 23:01 -40.64463 151.96995 32818 ft 500 kts 111°
2026-05-06 23:01 -40.67393 152.05332 32814 ft 501 kts 111°
2026-05-06 23:02 -40.70317 152.13675 32820 ft 501 kts 111°
2026-05-06 23:02 -40.73235 152.22027 32814 ft 501 kts 111°
2026-05-06 23:03 -40.76127 152.30329 32813 ft 500 kts 111°
2026-05-06 23:03 -40.79024 152.38670 32811 ft 499 kts 111°
2026-05-06 23:04 -40.81906 152.46994 32811 ft 499 kts 111°
2026-05-06 23:04 -40.84784 152.55331 32796 ft 499 kts 110°
2026-05-06 23:05 -40.87665 152.63702 32806 ft 501 kts 110°
2026-05-06 23:05 -40.90540 152.72079 32804 ft 501 kts 110°
2026-05-06 23:06 -40.93411 152.80470 32797 ft 501 kts 110°
2026-05-06 23:06 -40.96263 152.88829 32797 ft 503 kts 110°
2026-05-06 23:07 -40.99140 152.97288 32794 ft 503 kts 110°
2026-05-06 23:07 -41.02007 153.05741 32788 ft 503 kts 109°
2026-05-06 23:08 -41.04870 153.14209 32767 ft 503 kts 109°
2026-05-06 23:08 -41.07732 153.22698 32785 ft 505 kts 109°
2026-05-06 23:09 -41.10592 153.31211 32781 ft 505 kts 109°
2026-05-06 23:09 -41.13448 153.39737 32772 ft 505 kts 109°
2026-05-06 23:10 -41.16284 153.48226 32781 ft 507 kts 109°
2026-05-06 23:10 -41.19137 153.56797 32776 ft 508 kts 108°
2026-05-06 23:11 -41.21984 153.65377 32769 ft 508 kts 108°
2026-05-06 23:11 -41.24347 153.72516 32768 ft 508 kts 108°
2026-05-06 23:12 -41.27186 153.81117 32768 ft 509 kts 108°
2026-05-06 23:12 -41.30023 153.89743 32764 ft 509 kts 108°
2026-05-06 23:13 -41.32858 153.98387 32766 ft 509 kts 108°
2026-05-06 23:13 -41.35684 154.07028 32742 ft 509 kts 108°
2026-05-06 23:14 -41.38507 154.15694 32757 ft 510 kts 108°
2026-05-06 23:14 -41.41323 154.24364 32754 ft 510 kts 108°
2026-05-06 23:15 -41.44114 154.32980 32749 ft 510 kts 107°
2026-05-06 23:15 -41.46919 154.41668 32752 ft 510 kts 107°
2026-05-06 23:16 -41.49720 154.50375 32756 ft 510 kts 107°
2026-05-06 23:16 -41.52514 154.59084 32752 ft 510 kts 107°
2026-05-06 23:17 -41.55297 154.67790 32721 ft 510 kts 107°
2026-05-06 23:17 -41.58077 154.76513 32750 ft 510 kts 107°
2026-05-06 23:18 -41.60849 154.85241 32751 ft 510 kts 107°
2026-05-06 23:18 -41.63618 154.93985 32746 ft 510 kts 107°
2026-05-06 23:19 -41.66380 155.02737 32741 ft 511 kts 107°
2026-05-06 23:19 -41.69135 155.11499 32744 ft 511 kts 107°
2026-05-06 23:20 -41.71873 155.20231 32746 ft 511 kts 107°
2026-05-06 23:20 -41.74622 155.29025 32746 ft 511 kts 107°
2026-05-06 23:21 -41.77362 155.37821 32749 ft 511 kts 107°
2026-05-06 23:21 -41.80091 155.46611 32749 ft 511 kts 107°
2026-05-06 23:22 -41.82816 155.55418 32751 ft 511 kts 107°
2026-05-06 23:22 -41.85518 155.64179 32746 ft 512 kts 107°
2026-05-06 23:23 -41.88235 155.73023 32750 ft 513 kts 107°
2026-05-06 23:23 -41.90952 155.81890 32749 ft 513 kts 107°
2026-05-06 23:24 -41.93659 155.90753 32752 ft 513 kts 107°
2026-05-06 23:24 -41.96362 155.99641 32756 ft 514 kts 107°
2026-05-06 23:25 -41.99045 156.08486 32751 ft 515 kts 107°
2026-05-06 23:25 -42.01744 156.17412 32756 ft 515 kts 107°
2026-05-06 23:26 -42.04433 156.26340 32746 ft 514 kts 107°
2026-05-06 23:26 -42.07114 156.35274 32759 ft 515 kts 107°
2026-05-06 23:27 -42.09791 156.44221 32759 ft 515 kts 107°
2026-05-06 23:27 -42.12461 156.53175 32761 ft 515 kts 107°
2026-05-06 23:28 -42.15105 156.62074 32759 ft 513 kts 107°
2026-05-06 23:28 -42.17747 156.70995 32762 ft 511 kts 107°
2026-05-06 23:29 -42.20374 156.79907 32766 ft 511 kts 107°
2026-05-06 23:29 -42.22980 156.88780 32764 ft 510 kts 107°
2026-05-06 23:30 -42.25582 156.97659 32765 ft 506 kts 107°
2026-05-06 23:30 -42.28157 157.06484 32771 ft 505 kts 107°
2026-05-06 23:31 -42.30725 157.15321 32774 ft 505 kts 107°
2026-05-06 23:31 -42.33285 157.24161 32753 ft 505 kts 107°
2026-05-06 23:32 -42.35835 157.32990 32774 ft 503 kts 107°
2026-05-06 23:32 -42.38375 157.41814 32771 ft 503 kts 107°
2026-05-06 23:33 -42.40890 157.50585 32776 ft 503 kts 107°
2026-05-06 23:33 -42.43412 157.59410 32772 ft 502 kts 107°
2026-05-06 23:34 -42.45918 157.68210 32778 ft 500 kts 107°
2026-05-06 23:34 -42.48415 157.77008 32777 ft 500 kts 107°
2026-05-06 23:35 -42.50907 157.85820 32781 ft 500 kts 106°
2026-05-06 23:35 -42.53385 157.94613 32782 ft 498 kts 106°
2026-05-06 23:36 -42.55849 158.03386 32784 ft 497 kts 106°
2026-05-06 23:36 -42.58304 158.12159 32785 ft 497 kts 106°
2026-05-06 23:37 -42.60755 158.20951 32769 ft 497 kts 106°
2026-05-06 23:37 -42.63194 158.29726 32791 ft 496 kts 106°
2026-05-06 23:38 -42.65609 158.38449 32792 ft 496 kts 106°
2026-05-06 23:38 -42.68032 158.47230 32790 ft 496 kts 106°
2026-05-06 23:39 -42.70449 158.56022 32791 ft 496 kts 106°
2026-05-06 23:39 -42.72864 158.64834 32796 ft 496 kts 106°
2026-05-06 23:40 -42.75265 158.73632 32796 ft 496 kts 105°
2026-05-06 23:40 -42.77659 158.82432 32796 ft 496 kts 105°
2026-05-06 23:41 -42.80031 158.91182 32792 ft 496 kts 105°
2026-05-06 23:41 -42.82425 159.00047 32800 ft 495 kts 105°
2026-05-06 23:42 -42.84783 159.08812 32802 ft 495 kts 105°
2026-05-06 23:42 -42.87150 159.17639 32802 ft 495 kts 105°
2026-05-06 23:43 -42.89510 159.26472 32807 ft 495 kts 105°
2026-05-06 23:43 -42.91861 159.35307 32805 ft 495 kts 105°
2026-05-06 23:44 -42.94205 159.44142 32804 ft 495 kts 105°
2026-05-06 23:44 -42.96529 159.52938 32780 ft 495 kts 105°
2026-05-06 23:45 -42.98859 159.61790 32802 ft 494 kts 105°
2026-05-06 23:45 -43.01179 159.70633 32801 ft 494 kts 105°
2026-05-06 23:46 -43.03494 159.79491 32804 ft 494 kts 105°
2026-05-06 23:46 -43.05786 159.88298 32796 ft 494 kts 105°
2026-05-06 23:47 -43.08086 159.97163 32803 ft 493 kts 105°
2026-05-06 23:47 -43.10372 160.06006 32805 ft 493 kts 105°
2026-05-06 23:48 -43.12653 160.14866 32802 ft 493 kts 105°
2026-05-06 23:48 -43.14924 160.23722 32798 ft 493 kts 105°
2026-05-06 23:49 -43.17186 160.32573 32804 ft 492 kts 105°
2026-05-06 23:49 -43.19427 160.41373 32807 ft 492 kts 105°
2026-05-06 23:50 -43.21678 160.50248 32807 ft 492 kts 105°
2026-05-06 23:50 -43.25035 160.63548 32807 ft 491 kts 105°
2026-05-06 23:51 -43.27265 160.72423 32809 ft 491 kts 105°
2026-05-06 23:51 -43.29475 160.81252 32812 ft 491 kts 105°
2026-05-06 23:52 -43.31691 160.90140 32808 ft 491 kts 105°
2026-05-06 23:52 -43.33895 160.99012 32815 ft 490 kts 105°
2026-05-06 23:53 -43.36091 161.07885 32817 ft 490 kts 105°
2026-05-06 23:53 -43.38276 161.16751 32815 ft 490 kts 105°
2026-05-06 23:54 -43.40458 161.25640 32810 ft 490 kts 105°
2026-05-06 23:54 -43.42615 161.34458 32821 ft 489 kts 105°
2026-05-06 23:55 -43.44778 161.43334 32824 ft 489 kts 105°
2026-05-06 23:55 -43.46934 161.52219 32823 ft 489 kts 105°
2026-05-06 23:56 -43.49084 161.61112 32820 ft 488 kts 105°
2026-05-06 23:56 -43.51222 161.69992 32829 ft 488 kts 104°
2026-05-06 23:57 -43.53354 161.78867 32820 ft 488 kts 104°
2026-05-06 23:57 -43.55461 161.87691 32823 ft 488 kts 104°
2026-05-06 23:58 -43.57574 161.96578 32824 ft 488 kts 104°
2026-05-06 23:58 -43.59683 162.05478 32824 ft 488 kts 104°
2026-05-06 23:59 -43.61788 162.14392 32826 ft 488 kts 104°
2026-05-06 23:59 -43.63884 162.23306 32816 ft 488 kts 104°
2026-05-07 00:00 -43.65971 162.32218 32827 ft 487 kts 104°
2026-05-07 00:00 -43.67698 162.39617 32828 ft 487 kts 104°
2026-05-07 00:01 -43.69768 162.48523 32826 ft 487 kts 104°
2026-05-07 00:01 -43.72165 162.58877 32825 ft 486 kts 104°
2026-05-07 00:02 -43.73885 162.66338 32823 ft 486 kts 104°
2026-05-07 00:02 -43.75932 162.75249 32833 ft 486 kts 104°
2026-05-07 00:03 -43.77969 162.84155 32829 ft 486 kts 104°
2026-05-07 00:03 -43.79987 162.93017 32818 ft 485 kts 104°
2026-05-07 00:04 -43.90203 163.38415 33090 ft 479 kts 104°
2026-05-07 00:04 -43.98697 163.77159 32851 ft 483 kts 104°
2026-05-07 00:04 -43.99678 163.81621 32826 ft 483 kts 104°
2026-05-07 00:05 -44.18959 164.71723 32551 ft 487 kts 103°
2026-05-07 00:05 -44.33757 165.44071 33034 ft 478 kts 102°
2026-05-07 00:05 -44.41489 165.82659 32812 ft 484 kts 102°
2026-05-07 00:06 -44.43245 165.91667 32801 ft 482 kts 102°
2026-05-07 00:06 -44.61221 166.85168 32775 ft 478 kts 100°
2026-05-07 00:07 -44.57288 167.72512 26306 ft 476 kts 60°
2026-05-07 00:07 -44.53465 167.83015 50 ft 0 kts 29°